Terminal Aerodrome Forecast
Issued by NWS

Home | Current Version | Previous Version | Text Only | Print | Product List | Glossary On
Versions: 1 2 3 4 5 6 7 8 9 10 11 12 13 14 15 16 17
000
FTUS45 KRIW 301136
TAFCOD
TAF
KCOD 301136Z 3012/3112 20010KT P6SM FEW120 SCT250
     FM301700 13009KT P6SM FEW110 SCT250
     FM302200 15012G18KT P6SM SCT120 BKN250
     FM310200 20010KT P6SM FEW120 SCT250
      AMD LTD TO CLD VIS AND WIND=

USA.gov is the U.S. government's official web portal to all federal, state and local government web resources and services.